Date String (YYYY-MM-DD hh:mm:ss) UTC,Instrument flags,Ambient pressure (hPa),Sample flow (lpm),Bypass flow (lpm),Sample temperature (°C),Ambient temperature (°C),ASC tube jacket temperature (°C),LED temperature (°C),Box temperature (°C),Sample RH (%),Span deviation,Mass concentration (μg/m³),Mass concentration (μg/m³),Mass concentration (μg/m³)
DateTimeUTC,F1_M11,P_M11,Q1_M11,Q2_M11,T1_M11,T2_M11,T3_M11,T4_M11,T5_M11,U1_M11,ZSPAN_M11,X0_M11,X2_M11,X1_M11
2022-06-01 22:00:00,,0830.0,5.01,0.00,27.8,26.9,00.0,36.7,29.7,21.2,0000.0,0003.35,0003.00,0002.76
2022-06-01 22:01:00,,0830.0,5.00,0.00,27.8,26.8,00.0,36.7,29.7,21.2,0000.0,0003.38,0003.00,0002.75
2022-06-01 22:02:00,,0830.0,5.01,0.00,27.8,26.8,00.0,36.7,29.7,20.9,0000.0,0003.41,0003.01,0002.75
2022-06-01 22:03:00,,0830.0,4.99,0.00,27.8,26.8,00.0,36.7,29.7,20.8,0000.0,0003.44,0003.00,0002.77
2022-06-01 22:04:00,,0830.0,5.00,0.00,27.8,26.8,00.0,36.7,29.7,21.0,0000.0,0003.43,0003.01,0002.79
2022-06-01 22:05:00,,0830.0,5.00,0.00,27.8,26.8,00.0,36.7,29.7,20.7,0000.0,0003.45,0003.03,0002.81
2022-06-01 22:06:00,,0830.0,5.01,0.00,27.8,26.8,00.0,36.7,29.6,20.8,0000.0,0003.46,0003.04,0002.83
2022-06-01 22:07:00,,0829.9,5.01,0.00,27.8,26.8,00.0,36.7,29.7,21.5,0000.0,0003.53,0003.06,0002.83
2022-06-01 22:08:00,,0829.9,5.00,0.00,27.8,26.8,00.0,36.7,29.6,20.9,0000.0,0003.54,0003.07,0002.83
2022-06-01 22:09:00,,0829.9,4.99,0.00,27.8,26.8,00.0,36.7,29.6,21.0,0000.0,0003.85,0003.11,0002.82
2022-06-01 22:10:00,,0829.8,5.00,0.00,27.8,26.8,00.0,36.7,29.7,20.9,0000.0,0004.02,0003.14,0002.83
2022-06-01 22:11:00,,0829.9,5.00,0.00,27.8,26.8,00.0,36.7,29.7,20.7,0000.0,0004.08,0003.16,0002.83
2022-06-01 22:12:00,,0829.9,5.00,0.00,27.8,26.8,00.0,36.7,29.7,21.2,0000.0,0004.08,0003.17,0002.86
2022-06-01 22:13:00,,0829.9,4.98,0.00,27.8,26.9,00.0,36.7,29.7,20.8,0000.0,0004.32,0003.18,0002.87
2022-06-01 22:14:00,,0829.9,5.00,0.00,27.8,26.9,00.0,36.7,29.7,20.9,0000.0,0004.67,0003.16,0002.85
2022-06-01 22:15:00,,0829.9,5.00,0.00,27.8,26.9,00.0,36.7,29.7,21.4,0000.0,0004.71,0003.14,0002.81
2022-06-01 22:16:00,,0830.0,4.99,0.00,27.8,26.9,00.0,36.7,29.7,21.8,0000.0,0004.78,0003.13,0002.78
2022-06-01 22:17:00,,0829.9,5.01,0.00,27.8,26.9,00.0,36.8,29.7,21.5,0000.0,0004.75,0003.10,0002.74
2022-06-01 22:18:00,,0829.9,5.01,0.00,27.8,26.9,00.0,36.8,29.7,20.8,0000.0,0004.73,0003.08,0002.71
2022-06-01 22:19:00,,0829.9,5.00,0.00,27.8,26.9,00.0,36.8,29.7,21.0,0000.0,0004.72,0003.08,0002.70
2022-06-01 22:20:00,,0829.9,5.00,0.00,27.8,26.9,00.0,36.8,29.7,21.2,0000.0,0004.67,0003.08,0002.70
2022-06-01 22:21:00,,0829.9,5.00,0.00,27.8,26.9,00.0,36.8,29.8,20.9,0000.0,0004.55,0003.05,0002.70
2022-06-01 22:22:00,,0829.9,5.00,0.00,27.9,26.9,00.0,36.8,29.8,20.8,0000.0,0004.59,0003.00,0002.69
2022-06-01 22:23:00,,0829.9,4.99,0.00,27.9,26.9,00.0,36.8,29.8,20.7,0000.0,0004.56,0002.95,0002.66
2022-06-01 22:24:00,,0829.9,5.01,0.00,27.9,26.9,00.0,36.8,29.8,21.2,0000.0,0004.51,0002.96,0002.64
2022-06-01 22:25:00,,0829.9,4.99,0.00,27.9,27.0,00.0,36.8,29.8,20.7,0000.0,0004.05,0002.97,0002.65
2022-06-01 22:26:00,,0829.9,5.01,0.00,27.9,27.0,00.0,36.8,29.8,20.6,0000.0,0004.03,0003.03,0002.70
2022-06-01 22:27:00,,0829.8,5.00,0.00,27.9,27.0,00.0,36.8,29.8,20.4,0000.0,0003.95,0003.07,0002.75
2022-06-01 22:28:00,,0829.8,5.00,0.00,27.9,26.9,00.0,36.8,29.7,20.5,0000.0,0003.93,0003.08,0002.78
2022-06-01 22:29:00,,0829.8,5.00,0.00,27.9,26.9,00.0,36.8,29.8,20.7,0000.0,0003.89,0003.08,0002.80
2022-06-01 22:30:00,,0829.8,5.00,0.00,27.9,26.9,00.0,36.8,29.8,21.4,0000.0,0003.87,0003.09,0002.82
2022-06-01 22:31:00,,0829.8,5.01,0.00,27.9,26.9,00.0,36.8,29.8,21.6,0000.0,0003.76,0003.08,0002.84
2022-06-01 22:32:00,,0829.8,5.00,0.00,27.9,27.0,00.0,36.8,29.8,21.4,0000.0,0003.64,0003.08,0002.86
2022-06-01 22:33:00,,0829.8,4.99,0.00,27.9,27.0,00.0,36.8,29.8,21.3,0000.0,0003.55,0003.11,0002.89
2022-06-01 22:34:00,,0829.8,5.00,0.00,27.9,27.0,00.0,36.8,29.8,21.1,0000.0,0003.63,0003.15,0002.92
2022-06-01 22:35:00,,0829.8,5.00,0.00,27.9,27.0,00.0,36.8,29.8,21.5,0000.0,0003.51,0003.14,0002.94
2022-06-01 22:36:00,,0829.8,4.98,0.00,28.0,27.0,00.0,36.8,29.9,21.4,0000.0,0003.47,0003.14,0002.96
2022-06-01 22:37:00,,0829.8,5.01,0.00,28.0,27.0,00.0,36.8,29.8,21.0,0000.0,0003.48,0003.16,0002.98
2022-06-01 22:38:00,,0829.8,5.01,0.00,28.0,27.0,00.0,36.8,29.8,20.7,0000.0,0003.53,0003.18,0003.01
2022-06-01 22:39:00,,0829.8,4.99,0.00,27.9,27.0,00.0,36.9,29.8,20.5,0000.0,0003.61,0003.21,0003.05
2022-06-01 22:40:00,,0829.8,5.01,0.00,27.9,26.9,00.0,36.9,29.8,20.7,0000.0,0003.82,0003.25,0003.11
2022-06-01 22:41:00,,0829.8,5.01,0.00,27.9,26.9,00.0,36.9,29.8,20.6,0000.0,0003.94,0003.29,0003.15
2022-06-01 22:42:00,,0829.8,4.99,0.00,27.9,26.9,00.0,36.9,29.8,20.7,0000.0,0003.97,0003.31,0003.18
2022-06-01 22:43:00,,0829.8,5.01,0.00,27.9,26.9,00.0,36.9,29.8,20.8,0000.0,0004.04,0003.34,0003.20
2022-06-01 22:44:00,,0829.8,4.99,0.00,27.9,26.9,00.0,36.9,29.8,21.1,0000.0,0004.09,0003.36,0003.21
2022-06-01 22:45:00,,0829.8,5.00,0.00,28.0,27.0,00.0,36.9,29.8,21.1,0000.0,0004.04,0003.35,0003.22
2022-06-01 22:46:00,,0829.8,5.01,0.00,28.0,27.0,00.0,36.9,29.8,20.9,0000.0,0004.09,0003.37,0003.24
2022-06-01 22:47:00,,0829.8,5.00,0.00,28.0,27.0,00.0,36.9,29.8,20.7,0000.0,0004.16,0003.40,0003.26
2022-06-01 22:48:00,,0829.8,4.99,0.00,28.0,27.0,00.0,36.9,29.8,20.9,0000.0,0004.87,0003.42,0003.28
2022-06-01 22:49:00,,0829.8,5.01,0.00,28.0,27.0,00.0,36.9,29.8,21.2,0000.0,0005.99,0003.40,0003.27
2022-06-01 22:50:00,,0829.8,4.99,0.00,28.0,27.0,00.0,36.9,29.8,20.7,0000.0,0006.08,0003.42,0003.27
2022-06-01 22:51:00,,0829.9,4.99,0.00,28.0,27.0,00.0,36.9,29.8,20.7,0000.0,0005.89,0003.41,0003.27
2022-06-01 22:52:00,,0829.8,5.00,0.00,28.0,27.0,00.0,36.9,29.8,20.7,0000.0,0005.82,0003.40,0003.27
2022-06-01 22:53:00,,0829.8,5.00,0.00,28.0,27.0,00.0,36.9,29.8,20.7,0000.0,0005.84,0003.42,0003.29
2022-06-01 22:54:00,,0829.8,5.00,0.00,28.0,27.0,00.0,36.9,29.8,20.8,0000.0,0005.82,0003.42,0003.30
2022-06-01 22:55:00,,0829.8,5.01,0.00,28.0,27.0,00.0,36.9,29.9,20.9,0000.0,0005.88,0003.43,0003.32
2022-06-01 22:56:00,,0829.8,5.00,0.00,28.0,27.1,00.0,36.9,29.9,20.8,0000.0,0006.08,0003.46,0003.34
2022-06-01 22:57:00,,0829.8,4.98,0.00,28.0,27.1,00.0,36.9,29.9,20.6,0000.0,0006.09,0003.47,0003.35
2022-06-01 22:58:00,,0829.8,5.00,0.00,28.0,27.1,00.0,36.9,29.9,20.9,0000.0,0006.09,0003.48,0003.35
2022-06-01 22:59:00,,0829.8,5.01,0.00,28.0,27.1,00.0,36.9,29.9,20.6,0000.0,0005.43,0003.48,0003.36
